• Join FlightAware (Why Join?)
  • Login
  • US Flag 
02:26AM EDT


 

Airport Tracker/Info


-or-


 

Live Flight TrackerFlight Track Log ✈ SWA2702 ✈ 26-Apr-2013 ✈ KSNA - KSFO

Flight Track Log - Related Links

Times and Time Zones

All times are in EDT time to prevent confusion due to time zone crossing. See the SWA2702 flight status page for this flight to view local times or setup timezone preferences in your user account.

Time Position Orientation Groundspeed Altitude Reporting Facility
EDT Latitude Longitude Course Direction KTS MPH feet Rate Location/Type
12:07PM 33.6500 -117.8833 180° South 152 175 1,100  Level Southern California TRACON
12:08PM 33.6167 -117.8833 180° South 161 185 2,600 1,380 Climbing Southern California TRACON
12:08PM 33.5897 -117.8931 197° South 155 178 3,400 1,140 Climbing Los Angeles Center
12:09PM 33.5272 -117.9022 187° South 216 249 4,600 1,500 Climbing Los Angeles Center
12:10PM 33.4603 -117.9483 210° Southwest 260 299 6,600 2,760 Climbing Los Angeles Center
12:11PM 33.3931 -118.0000 213° Southwest 277 319 10,400 3,000 Climbing Los Angeles Center
12:12PM 33.3436 -118.0853 235° Southwest 334 384 12,800 2,100 Climbing Los Angeles Center
12:13PM 33.3578 -118.2156 277° West 389 448 14,800 2,460 Climbing Los Angeles Center
12:14PM 33.3722 -118.3833 276° West 413 475 18,000 2,640 Climbing Los Angeles Center
12:16PM 33.4571 -118.4580 North  Level Estimated
12:17PM 33.5308 -118.6044 North 443 510 23,100  Level Los Angeles Center
12:18PM 33.6233 -118.7117 316° Northwest 453 521 25,000 2,160 Climbing Los Angeles Center
12:19PM 33.7161 -118.8214 315° West 463 533 27,600 2,220 Climbing Los Angeles Center
12:20PM 33.8072 -118.9308 315° West 460 529 29,700 1,140 Climbing Los Angeles Center
12:21PM 33.8989 -119.0389 316° Northwest 462 532 30,000 120 Climbing Los Angeles Center
12:22PM 33.9900 -119.1481 315° West 462 532 30,000  Level Los Angeles Center
12:23PM 34.1003 -119.2797 315° West 465 535 30,000  Level Los Angeles Center
12:24PM 34.1919 -119.3894 315° West 463 533 30,000  Level Los Angeles Center
12:25PM 34.2844 -119.4972 316° Northwest 463 533 30,000  Level Los Angeles Center
12:26PM 34.3803 -119.6022 318° Northwest 464 534 30,000  Level Los Angeles Center
12:27PM 34.4775 -119.7072 318° Northwest 466 536 30,000  Level Los Angeles Center
12:28PM 34.5742 -119.8144 318° Northwest 469 540 30,000  Level Los Angeles Center
12:29PM 34.6861 -119.9378 318° Northwest 466 536 30,000  Level Los Angeles Center
12:30PM 34.7842 -120.0444 318° Northwest 470 541 30,000  Level Los Angeles Center
12:31PM 34.8808 -120.1522 318° Northwest 472 543 30,000  Level Los Angeles Center
12:32PM 34.9775 -120.2611 317° Northwest 473 544 30,000  Level Los Angeles Center
12:33PM 35.0708 -120.3664 317° Northwest 470 541 30,000  Level Los Angeles Center
12:34PM 35.1853 -120.4956 317° Northwest 471 542 30,000  Level Los Angeles Center
12:35PM 35.2803 -120.6033 317° Northwest 470 541 30,000  Level Los Angeles Center
12:36PM 35.3822 -120.7039 321° Northwest 473 544 30,000  Level Los Angeles Center
12:36PM 35.4125 -120.7300 325° Northwest 466 536 30,000  Level Oakland Center
12:37PM 35.5175 -120.8253 324° Northwest 467 537 30,000  Level Oakland Center
12:38PM 35.6219 -120.9208 323° Northwest 465 535 30,000  Level Oakland Center
12:40PM 35.7261 -121.0156 324° Northwest 465 535 30,000  Level Oakland Center
12:41PM 35.8289 -121.1106 323° Northwest 461 531 30,000 -300 Level Oakland Center
12:42PM 35.9322 -121.2047 324° Northwest 458 527 29,500 -900 Descending Oakland Center
12:43PM 36.0461 -121.3100 323° Northwest 424 488 28,200 -1,200 Descending Oakland Center
12:44PM 36.1386 -121.3964 323° Northwest 418 481 27,100 -1,080 Descending Oakland Center
12:45PM 36.2297 -121.4811 323° Northwest 410 472 26,100 -1,380 Descending Oakland Center
12:46PM 36.3247 -121.5706 323° Northwest 427 491 24,300 -2,100 Descending Oakland Center
12:47PM 36.4217 -121.6608 323° Northwest 434 499 21,800 -2,040 Descending Oakland Center
12:48PM 36.5150 -121.7475 323° Northwest 420 483 20,200 -900 Descending Oakland Center
12:49PM 36.6186 -121.8464 323° Northwest 414 476 20,000 -1,080 Descending Oakland Center
12:50PM 36.7056 -121.9306 322° Northwest 400 460 18,100 -2,340 Descending Oakland Center
12:51PM 36.8031 -121.9819 337° Northwest 383 441 15,300 -2,880 Descending Oakland Center
12:52PM 36.9167 -122.0167 346° North 377 434 12,200 -2,460 Descending Northern Cal TRACON
12:53PM 37.0167 -122.0333 352° North 354 407 10,300 -1,140 Descending Northern Cal TRACON
12:54PM 37.1000 -122.0667 342° North 316 364 10,000 -180 Descending Northern Cal TRACON
12:55PM 37.1833 -122.0833 351° North 292 336 10,000 -300 Level Northern Cal TRACON
12:56PM 37.2500 -122.1167 338° Northwest 288 331 9,400 -1,020 Descending Northern Cal TRACON
12:57PM 37.2833 -122.2000 297° West 287 330 8,000 -1,140 Descending Northern Cal TRACON
12:58PM 37.3333 -122.2833 307° West 266 306 7,200 -540 Descending Northern Cal TRACON
12:59PM 37.3833 -122.2833 360° North 226 260 7,000 -600 Descending Northern Cal TRACON
01:00PM 37.4000 -122.2167 73° East 223 257 6,100 -540 Descending Northern Cal TRACON
01:01PM 37.3833 -122.1500 107° East 204 235 6,000 -660 Descending Northern Cal TRACON
01:02PM 37.4167 -122.1000 50° Northeast 197 227 4,800 -1,020 Descending Northern Cal TRACON
01:03PM 37.4667 -122.1167 345° North 187 215 4,000 -600 Descending Northern Cal TRACON
01:04PM 37.5167 -122.1500 332° Northwest 180 207 3,700 -660 Descending Northern Cal TRACON
01:04PM 37.5214 -122.1519 342° North 183 211 3,200 -900 Descending Oakland Center
01:05PM 37.5472 -122.2033 302° West 179 206 2,500 -720 Descending Oakland Center
01:06PM 37.5694 -122.2550 298° West 173 199 1,800 -720 Descending Oakland Center
01:07PM 37.5861 -122.2969 297° West 154 177 1,100 -780 Descending Oakland Center
01:08PM 37.6044 -122.3394 299° West 143 165 300 -480 Descending Oakland Center
01:09PM 37.6225 -122.3803 299° West 142 163 200 -120 Descending Oakland Center
01:11PM 37.6167 -122.3667 North  Level FlightAware Approximate